Waarnemingen

Advertentie
Mijn weer
Murcia/Alcantarilla, Spanje (8429): temperatuur & dauwpunt: 09.08.2018 01:00:00 - 15.08.2018 01:00:00 (CEST)Murcia/Alcantarilla, Spanje (8429): windsnelheid: 09.08.2018 01:00:00 - 15.08.2018 01:00:00 (CEST)Murcia/Alcantarilla, Spanje (8429): windrichting: 09.08.2018 01:00:00 - 15.08.2018 01:00:00 (CEST)Murcia/Alcantarilla, Spanje (8429): luchtdruk: 09.08.2018 01:00:00 - 15.08.2018 01:00:00 (CEST)Murcia/Alcantarilla, Spanje (8429): zicht: 09.08.2018 01:00:00 - 15.08.2018 01:00:00 (CEST)
Datum & Tijd tt [°C] td [°C] ff [km/u] ff [kn] dd ppp [hPa] vv [km]
15.08.2018 01:00:00 - - - - - - -
15.08.2018 00:00:00 - - - - - - -
14.08.2018 23:00:00 - - - - - - -
14.08.2018 22:00:00 - - - - - - -
14.08.2018 21:00:00 - - - - - - -
14.08.2018 20:00:00 30,0 22,2 18 10 OZO 1014,7 25
14.08.2018 19:00:00 - - - - - - -
14.08.2018 18:00:00 - - - - - - -
14.08.2018 17:00:00 33,2 21,4 24 13 ZO 1014,2 25
14.08.2018 16:00:00 - - - - - - -
14.08.2018 15:00:00 - - - - - - -
14.08.2018 14:00:00 33,2 20,4 9 5 O 1015,1 30
14.08.2018 13:00:00 - - - - - - -
14.08.2018 12:00:00 - - - - - - -
14.08.2018 11:00:00 28,8 23,0 5 3 NO 1015,7 9
14.08.2018 10:00:00 - - - - - - -
14.08.2018 09:00:00 - - - - - - -
14.08.2018 08:00:00 23,6 20,9 4 2 WNW 1014,9 8
14.08.2018 07:00:00 - - - - - - -
14.08.2018 06:00:00 - - - - - - -
14.08.2018 05:00:00 - - - - - - -
14.08.2018 04:00:00 - - - - - - -
14.08.2018 03:00:00 - - - - - - -
14.08.2018 02:00:00 - - - - - - -
14.08.2018 01:00:00 - - - - - - -
14.08.2018 00:00:00 - - - - - - -
13.08.2018 23:00:00 - - - - - - -
13.08.2018 22:00:00 - - - - - - -
13.08.2018 21:00:00 - - - - - - -
13.08.2018 20:00:00 31,6 19,9 21 11 WZW 1009,8 30
13.08.2018 19:00:00 - - - - - - -
13.08.2018 18:00:00 - - - - - - -
13.08.2018 17:00:00 35,2 20,3 16 9 ZO 1010,1 30
13.08.2018 16:00:00 - - - - - - -
13.08.2018 15:00:00 - - - - - - -
13.08.2018 14:00:00 34,0 22,1 5 3 ONO 1012,2 30
13.08.2018 13:00:00 - - - - - - -
13.08.2018 12:00:00 - - - - - - -
13.08.2018 11:00:00 29,6 23,5 4 2 N 1013,9 20
13.08.2018 10:00:00 - - - - - - -
13.08.2018 09:00:00 - - - - - - -
13.08.2018 08:00:00 26,2 24,4 24 13 ONO 1014,0 20
13.08.2018 07:00:00 - - - - - - -
13.08.2018 06:00:00 - - - - - - -
13.08.2018 05:00:00 - - - - - - -
13.08.2018 04:00:00 - - - - - - -
13.08.2018 03:00:00 - - - - - - -
13.08.2018 02:00:00 - - - - - - -
13.08.2018 01:00:00 - - - - - - -
13.08.2018 00:00:00 - - - - - - -
12.08.2018 23:00:00 - - - - - - -
12.08.2018 22:00:00 - - - - - - -
12.08.2018 21:00:00 - - - - - - -
12.08.2018 20:00:00 31,2 20,2 21 11 OZO 1013,0 40
12.08.2018 19:00:00 - - - - - - -
12.08.2018 18:00:00 - - - - - - -
12.08.2018 17:00:00 34,1 19,7 18 10 ZO 1014,0 50
12.08.2018 16:00:00 - - - - - - -
12.08.2018 15:00:00 - - - - - - -
12.08.2018 14:00:00 32,2 19,8 13 7 ONO 1016,1 40
12.08.2018 13:00:00 - - - - - - -
12.08.2018 12:00:00 - - - - - - -
12.08.2018 11:00:00 28,4 20,9 5 3 N 1017,4 12
12.08.2018 10:00:00 - - - - - - -
12.08.2018 09:00:00 - - - - - - -
12.08.2018 08:00:00 23,7 20,2 2 1 N 1018,1 10
12.08.2018 07:00:00 - - - - - - -
12.08.2018 06:00:00 - - - - - - -
12.08.2018 05:00:00 - - - - - - -
12.08.2018 04:00:00 - - - - - - -
12.08.2018 03:00:00 - - - - - - -
12.08.2018 02:00:00 - - - - - - -
12.08.2018 01:00:00 - - - - - - -
12.08.2018 00:00:00 - - - - - - -
11.08.2018 23:00:00 - - - - - - -
11.08.2018 22:00:00 - - - - - - -
11.08.2018 21:00:00 - - - - - - -
11.08.2018 20:00:00 29,2 16,4 21 11 ONO 1018,1 20
11.08.2018 19:00:00 - - - - - - -
11.08.2018 18:00:00 - - - - - - -
11.08.2018 17:00:00 32,8 17,8 26 14 ONO 1019,3 20
11.08.2018 16:00:00 - - - - - - -
11.08.2018 15:00:00 - - - - - - -
11.08.2018 14:00:00 32,2 21,4 22 12 NO 1019,5 20
11.08.2018 13:00:00 - - - - - - -
11.08.2018 12:00:00 - - - - - - -
11.08.2018 11:00:00 29,3 23,0 11 6 O 1021,5 15
11.08.2018 10:00:00 - - - - - - -
11.08.2018 09:00:00 - - - - - - -
11.08.2018 08:00:00 25,4 23,3 2 1 N 1020,6 10
11.08.2018 07:00:00 - - - - - - -
11.08.2018 06:00:00 - - - - - - -
11.08.2018 05:00:00 - - - - - - -
11.08.2018 04:00:00 - - - - - - -
11.08.2018 03:00:00 - - - - - - -
11.08.2018 02:00:00 - - - - - - -
11.08.2018 01:00:00 - - - - - - -
11.08.2018 00:00:00 - - - - - - -
10.08.2018 23:00:00 - - - - - - -
10.08.2018 22:00:00 - - - - - - -
10.08.2018 21:00:00 - - - - - - -
10.08.2018 20:00:00 29,6 22,1 26 14 O 1019,0 40
10.08.2018 19:00:00 - - - - - - -
10.08.2018 18:00:00 - - - - - - -
10.08.2018 17:00:00 33,2 17,4 26 14 ONO 1018,4 40
10.08.2018 16:00:00 - - - - - - -
10.08.2018 15:00:00 - - - - - - -
10.08.2018 14:00:00 32,2 19,5 22 12 ONO 1019,1 30
10.08.2018 13:00:00 - - - - - - -
10.08.2018 12:00:00 - - - - - - -
10.08.2018 11:00:00 29,4 22,6 16 9 ONO 1019,5 20
10.08.2018 10:00:00 - - - - - - -
10.08.2018 09:00:00 - - - - - - -
10.08.2018 08:00:00 25,0 21,7 5 3 ZW 1018,8 12
10.08.2018 07:00:00 - - - - - - -
10.08.2018 06:00:00 - - - - - - -
10.08.2018 05:00:00 - - - - - - -
10.08.2018 04:00:00 - - - - - - -
10.08.2018 03:00:00 - - - - - - -
10.08.2018 02:00:00 - - - - - - -
10.08.2018 01:00:00 - - - - - - -
10.08.2018 00:00:00 - - - - - - -
09.08.2018 23:00:00 - - - - - - -
09.08.2018 22:00:00 - - - - - - -
09.08.2018 21:00:00 - - - - - - -
09.08.2018 20:00:00 33,0 20,9 9 5 WZW 1012,4 20
09.08.2018 19:00:00 - - - - - - -
09.08.2018 18:00:00 - - - - - - -
09.08.2018 17:00:00 34,2 19,8 18 10 ZZO 1012,0 30
09.08.2018 16:00:00 - - - - - - -
09.08.2018 15:00:00 - - - - - - -
09.08.2018 14:00:00 33,4 16,3 8 4 O 1013,4 30
09.08.2018 13:00:00 - - - - - - -
09.08.2018 12:00:00 - - - - - - -
09.08.2018 11:00:00 28,6 21,1 2 1 NW 1014,0 20
09.08.2018 10:00:00 - - - - - - -
09.08.2018 09:00:00 - - - - - - -
09.08.2018 08:00:00 24,2 21,1 4 2 N 1013,3 15
09.08.2018 07:00:00 - - - - - - -
09.08.2018 06:00:00 - - - - - - -
09.08.2018 05:00:00 - - - - - - -
09.08.2018 04:00:00 - - - - - - -
09.08.2018 03:00:00 - - - - - - -
09.08.2018 02:00:00 - - - - - - -
09.08.2018 01:00:00 - - - - - - -

tt = temperatuur
td = dauwpunt
ff = windsnelheid
dd = windrichting
ppp = luchtdruk
vv = zicht

Weerstations in de omgeving